Terminal Aerodrome Forecast
Issued by NWS Rapid City, SD

Home | Current Version | Previous Version | Graphics & Text | Print | Product List | Glossary On
Versions: 1 2 3 4 5 6 7 8 9 10 11 12 13 14 15 16 17 18 19 20 21 22 23 24 25 26 27 28
000
FTUS43 KUNR 281730
TAFRAP
TAF
KRAP 281730Z 2818/2918 VRB05KT 5SM -RA BR OVC040
      TEMPO 2818/2819 OVC025
     FM281900 VRB05KT 4SM -RA BR OVC020
     FM290000 VRB05KT 5SM -RA BR OVC007
     FM290600 13007KT P6SM BKN015=

USA.gov is the U.S. government's official web portal to all federal, state and local government web resources and services.